Location: Carrières
(48.9495°N, 2.0407°E)
Time: 21:43:14
(UTC+00:00)

Courier 1B Rocket - Pass Details

Date: 17 April 2024
Orbit: 920 x 1201 km, 28.2° (Epoch: 25 May)

Event Time Altitude Azimuth Distance (km) Brightness Sun altitude
Rises 06:43:25 0° 227° (SW) 3,845 7.7 16.6°
Reaches altitude 10° 06:48:26 10° 197° (SSW) 2,813 7.3 17.4°
Maximum altitude 06:50:35 12° 178° (S) 2,662 7.4 17.7°
Drops below altitude 10° 06:52:42 10° 159° (SSE) 2,750 7.8 18.1°
Sets 06:57:26 0° 129° (SE) 3,635 8.9 18.9°
